Location: Forli
(44.2227°N, 12.0407°E)
Time: 03:36:35
(UTC+02:00)

DX 1 - Pass Details

Date: 11 April 2026
Orbit: 593 x 604 km, 98.4° (Epoch: 19 May)

Event Time Altitude Azimuth Distance (km) Brightness Sun altitude
Rises 05:43:22 0° 353° (N) 2,844 ? -9.8°
Reaches altitude 10° 05:46:46 10° 324° (NW) 1,935 ? -9.2°
Maximum altitude 05:48:26 12° 300° (WNW) 1,791 ? -8.9°
Drops below altitude 10° 05:50:05 10° 277° (W) 1,929 ? -8.6°
Enters shadow 05:50:28 - 272° (W) 1,996 ? -8.6°
